Theta_e
349 351 350 350 348 345 341 340 333 330 329 325 317 313 312 313 313 316 317 315 317 316 316 315 314 312 312 311 311 311 311 312 312 313 314 314 313 313 315 317 317 319 320
349 348 347 347 345 343 340 333 330 329 327 320 315 313 313 315 313 314 316 316 315 315 315 313 313 312 311 311 311 311 312 312 313 313 313 313 313 314 314 316 315 316 319
346 346 345 343 342 339 332 330 331 328 321 318 317 318 318 317 317 315 315 315 314 314 313 312 312 310 310 310 311 310 310 311 312 312 312 312 313 315 315 315 313 313 317
345 344 342 338 336 332 330 329 326 321 319 319 319 318 318 317 316 315 316 315 314 314 312 311 308 308 309 306 304 305 308 308 308 309 310 311 312 314 312 312 311 312 313
342 340 338 334 333 330 328 324 321 320 319 319 318 318 316 316 315 315 315 313 313 312 309 308 308 307 303 304 304 304 303 304 305 306 307 309 310 310 310 309 309 309 311
337 337 334 332 331 328 325 322 321 320 319 319 318 317 316 313 313 313 313 312 310 306 309 309 308 308 307 306 304 305 303 304 304 304 304 306 306 308 308 307 307 308 309
335 334 332 329 328 326 323 322 321 319 319 317 316 316 316 313 312 312 313 311 308 306 307 308 307 307 306 307 306 306 305 304 303 303 304 305 305 304 303 303 304 305 306
332 331 329 327 326 324 322 321 320 318 317 316 315 314 311 311 311 312 312 311 306 306 307 307 306 306 306 305 304 304 303 304 304 303 303 303 302 302 301 301 302 303 304
328 326 326 325 324 322 320 319 317 316 315 314 313 312 311 310 311 311 311 309 305 306 305 305 306 305 304 303 302 302 303 302 302 302 301 301 300 299 299 299 301 303 304
325 324 323 322 321 320 319 317 316 314 313 311 311 311 311 309 309 309 309 305 303 304 304 304 305 304 303 302 301 301 301 301 301 301 301 301 300 300 300 301 302 304 305
311 315 319 319 319 316 313 311 311 309 308 309 309 309 309 308 305 304 302 301 302 302 302 303 303 303 302 302 301 300 300 300 299 300 300 300 300 300 301 302 303 303 305
304 304 304 305 305 306 307 306 306 307 307 307 307 306 306 305 303 302 301 300 299 300 300 301 301 301 301 300 300 299 299 299 298 299 299 299 299 299 300 301 302 302 304
300 301 302 301 302 302 304 305 305 304 302 302 304 304 304 303 302 300 299 300 300 299 297 297 300 300 300 299 298 298 297 298 298 299 299 299 299 300 299 299 299 301 302
300 300 301 300 301 300 301 302 301 301 301 302 302 302 302 302 301 299 298 296 296 296 296 297 299 299 298 298 299 299 298 298 299 299 299 300 299 299 299 299 299 300 301
298 300 300 300 300 300 300 299 299 299 298 298 299 298 298 299 298 298 297 298 299 299 298 299 297 298 299 299 299 298 297 297 297 297 297 298 299 299 299 298 299 299 300
296 296 297 298 299 300 300 300 300 298 298 298 298 298 296 296 297 297 298 298 299 298 298 297 297 298 298 297 297 297 296 296 296 296 296 298 298 299 299 299 298 299 300
294 296 297 296 297 298 299 299 300 299 299 298 297 297 296 297 297 297 298 298 298 297 297 297 297 297 297 296 295 295 295 296 294 296 296 297 298 298 298 299 299 299 300
295 295 296 296 295 296 296 297 297 298 298 299 297 296 295 296 297 297 297 297 295 297 296 296 297 296 296 296 296 295 295 295 296 295 296 296 296 297 298 298 298 299 300
296 295 296 296 295 295 296 296 296 297 297 297 297 296 295 294 295 294 294 294 294 294 294 295 296 295 295 295 295 295 295 295 294 294 294 296 296 297 298 298 298 298 300
297 296 295 295 295 295 295 295 296 296 296 296 296 296 294 294 294 293 293 293 294 294 293 294 294 294 294 294 294 294 294 294 294 294 295 295 296 296 297 298 298 299 300
296 296 295 295 295 294 294 295 295 295 295 295 295 296 295 293 293 292 292 292 292 292 292 292 292 292 292 293 293 293 293 293 293 294 294 294 295 296 297 298 298 299 299
295 295 294 294 294 293 294 294 294 294 294 294 295 295 294 292 293 292 291 291 291 291 290 290 290 290 291 290 291 291 292 291 292 292 293 294 295 295 296 297 298 299 300
294 294 294 294 293 293 293 293 294 293 293 294 294 294 292 292 292 291 290 290 290 290 290 290 290 290 290 290 291 291 290 291 291 291 293 294 294 295 296 297 298 299 299
295 294 293 293 293 293 293 293 293 292 292 293 293 292 291 291 291 290 289 289 290 290 290 290 290 290 290 290 290 290 290 291 290 291 291 292 293 295 296 297 298 299 299
295 294 293 292 292 292 292 292 292 292 292 292 292 291 291 290 290 290 289 289 290 290 291 291 291 291 290 290 291 291 290 290 290 290 290 290 292 295 295 296 297 298 299
295 294 293 292 291 291 291 291 290 290 291 291 290 289 289 289 289 289 288 289 289 290 292 292 292 292 292 292 293 293 292 291 290 291 290 290 291 293 295 296 297 298 299
Wind_Speed
29 32 34 32 30 28 29 26 29 30 25 21 19 18 16 14 12 12 13 5 3 1 3 4 7 11 8 10 10 10 12 14 19 22 22 22 24 21 19 17 18 15 13
28 28 25 28 34 36 29 31 32 26 21 20 19 19 18 14 11 9 9 6 4 1 3 7 8 8 12 12 11 13 14 15 17 22 23 23 22 21 21 19 18 16 12
28 31 31 33 33 29 30 29 25 23 23 22 20 18 15 13 12 10 7 6 4 4 6 8 9 11 12 11 11 13 13 14 15 17 20 19 18 17 16 18 19 17 15
23 29 31 27 27 28 26 26 25 23 22 20 18 16 14 12 9 8 7 5 4 3 7 10 11 11 11 15 15 12 12 14 15 15 15 15 14 17 16 19 21 17 18
26 26 30 27 26 24 24 23 23 23 21 19 18 16 14 10 10 11 7 4 6 8 10 11 9 15 17 15 13 14 14 13 15 16 16 14 14 15 15 14 17 18 16
21 23 24 26 23 22 23 24 22 20 19 18 17 15 12 14 16 14 11 10 10 9 9 9 11 13 14 16 18 19 17 14 12 14 15 15 16 14 14 15 18 20 22
16 21 22 22 21 21 20 21 19 21 21 16 13 12 12 17 18 14 12 12 11 10 9 10 11 10 13 12 14 17 18 17 18 18 16 15 14 14 19 20 19 20 23
19 20 25 21 21 21 22 23 24 23 20 24 25 22 12 13 11 13 15 14 11 10 9 10 13 13 11 15 14 15 15 15 14 16 16 17 20 21 21 21 24 25 24
22 22 23 24 28 27 28 31 31 31 29 27 20 15 13 14 15 15 15 13 8 10 11 11 12 14 15 20 18 16 16 15 13 19 21 22 22 25 25 19 17 18 21
29 27 30 31 28 32 32 31 30 23 19 17 15 13 12 12 13 15 17 15 11 10 11 9 15 12 18 22 21 16 18 18 19 20 20 20 22 21 17 12 16 16 18
23 24 25 25 27 27 26 21 19 16 12 9 5 5 7 12 14 17 16 12 8 9 9 10 14 20 22 24 27 28 22 24 24 24 20 20 18 16 14 15 15 17 21
31 31 27 26 23 21 19 15 13 8 5 6 7 10 9 9 10 14 18 19 19 15 12 12 16 25 25 29 31 31 30 29 25 24 22 19 19 18 15 15 19 20 22
32 28 24 21 19 14 10 5 5 6 6 3 1 1 1 2 8 14 19 17 14 14 12 16 19 19 21 22 18 19 20 22 21 19 22 18 17 17 20 22 19 16 19
25 22 20 14 16 15 12 8 10 8 6 3 4 2 3 4 5 8 12 12 13 11 14 16 19 18 15 14 15 14 14 14 17 21 20 17 17 16 17 17 16 15 14
21 20 14 19 18 17 11 9 9 11 7 2 4 5 6 4 11 19 20 18 16 16 20 19 15 12 12 12 12 12 14 13 13 16 16 15 12 13 15 14 13 14 15
16 15 18 18 14 12 10 11 15 16 11 8 9 9 7 13 16 17 17 17 18 18 18 16 12 11 14 13 12 13 12 12 11 11 12 14 12 12 14 12 13 14 17
20 19 15 14 11 10 8 8 8 11 14 18 19 16 17 14 17 19 19 19 15 14 15 11 12 13 14 12 15 13 14 13 12 11 10 10 10 13 12 12 13 13 15
20 20 15 11 11 8 8 9 9 9 9 10 15 18 19 21 21 19 19 16 11 8 12 11 13 14 14 13 13 12 13 14 10 12 9 10 11 12 12 12 12 12 12
18 17 12 12 12 11 10 10 9 9 9 10 11 13 16 21 20 17 17 15 14 12 11 11 13 13 14 14 14 14 13 12 13 12 11 11 11 11 12 13 13 13 13
16 20 16 13 13 13 12 11 11 11 11 12 13 14 16 25 19 16 15 14 14 14 14 13 13 14 15 15 16 15 14 12 12 10 11 9 12 12 13 14 14 13 10
16 15 15 13 12 12 12 14 14 13 14 15 15 18 26 24 19 19 18 16 16 16 15 15 15 16 16 16 15 15 15 14 13 11 11 12 14 12 13 13 13 13 12
19 18 17 16 16 16 16 15 15 15 16 16 17 17 22 21 20 19 18 17 17 16 16 17 17 18 17 17 16 16 16 15 13 11 13 13 13 13 12 13 12 12 11
23 22 20 19 18 18 18 18 18 19 19 18 19 21 23 26 24 23 22 20 18 19 19 19 19 19 19 18 19 19 18 16 14 12 13 12 13 12 12 13 13 11 11
25 25 24 23 22 21 21 20 20 20 20 20 21 23 28 29 29 27 24 22 21 22 22 22 22 23 23 22 21 20 19 17 15 15 12 17 18 12 15 12 14 12 11
25 25 24 23 21 21 21 20 21 21 21 22 23 26 30 31 30 30 26 24 22 24 26 26 24 22 22 22 23 21 21 21 21 19 20 18 20 15 14 14 14 12 10
23 23 23 22 21 21 20 20 21 21 22 23 25 29 30 31 31 30 27 25 25 27 26 24 23 22 22 22 22 20 20 21 23 20 20 20 20 21 12 15 12 14 13
Wind_Direction
216 220 216 206 199 202 202 182 186 198 196 186 182 177 180 179 179 169 179 199 157 18 330 314 323 323 320 326 318 321 308 304 301 304 311 313 320 325 323 322 325 324 324
227 212 202 206 196 201 196 184 193 191 187 177 175 179 182 183 188 187 151 175 193 295 302 314 319 317 322 329 317 317 308 309 304 304 311 315 318 319 324 326 328 322 319
232 224 215 209 195 201 179 185 185 185 174 174 172 171 173 183 183 187 182 207 253 290 298 298 310 316 313 310 316 315 310 305 303 303 309 316 316 316 313 324 330 338 333
226 207 198 194 187 181 172 179 178 174 169 167 171 168 172 175 185 191 217 236 268 280 287 293 304 307 304 296 312 311 309 300 311 306 304 307 312 326 331 328 328 334 324
226 193 192 178 175 170 176 170 171 166 169 166 165 168 182 169 193 193 196 240 269 289 297 305 306 281 303 307 317 316 324 315 312 314 312 314 319 328 331 317 318 321 321
192 188 179 175 170 168 166 167 169 165 166 169 167 168 167 202 222 229 244 262 282 294 302 301 300 317 319 304 321 325 331 335 320 306 303 300 306 320 311 308 311 316 313
196 188 175 173 169 171 167 164 163 167 168 166 166 166 175 222 227 241 265 279 284 282 293 298 300 290 297 297 302 311 320 314 313 309 305 296 306 305 300 297 310 303 301
192 190 175 175 176 171 168 167 170 174 173 180 183 192 206 242 254 268 277 284 297 299 296 295 294 297 301 286 287 287 290 295 297 302 293 295 286 285 292 297 297 297 302
182 167 160 176 174 173 173 177 183 190 191 198 206 208 232 262 272 280 286 297 305 297 296 294 286 287 287 285 288 293 293 294 291 294 288 285 290 285 287 293 295 296 290
177 180 172 184 184 177 183 180 180 195 201 202 212 227 248 268 285 294 301 305 295 298 306 308 292 282 281 277 282 286 292 295 292 286 284 295 298 298 305 288 290 286 290
131 147 160 171 179 174 169 170 175 176 181 180 210 255 285 305 319 310 309 312 304 301 294 295 290 287 283 280 283 284 282 277 281 284 285 289 288 295 296 289 285 284 279
95 97 97 112 109 117 126 122 111 95 43 354 342 335 335 333 299 301 310 308 303 303 297 292 279 270 273 274 276 278 279 278 281 277 279 279 286 284 284 277 270 262 263
73 74 72 66 70 61 68 84 110 102 36 18 38 141 116 290 313 309 305 309 305 308 299 288 290 296 294 296 302 297 285 278 273 273 277 277 280 283 287 286 288 288 274
69 65 58 75 79 71 60 57 69 71 99 22 348 339 309 308 293 272 292 311 312 320 303 300 308 314 321 326 315 310 304 292 273 269 267 269 275 286 285 283 286 289 282
49 53 54 51 56 53 48 69 54 45 34 61 313 341 325 308 279 279 294 300 305 306 310 313 312 310 304 294 289 285 285 281 276 266 274 265 269 284 285 284 287 289 288
49 49 51 51 53 52 42 9 21 18 15 21 4 4 346 330 334 328 322 316 309 306 304 309 301 297 294 292 293 289 287 285 280 285 281 268 263 282 285 289 289 287 283
43 47 39 40 40 43 29 33 34 2 6 354 355 352 347 348 344 336 325 315 319 312 316 326 298 294 294 292 294 291 292 291 284 282 278 283 270 276 286 289 290 282 283
28 36 35 31 29 34 23 23 21 16 359 360 345 342 336 332 338 339 341 334 328 308 304 294 294 293 297 298 296 295 290 285 289 283 273 277 271 276 281 285 285 275 279
30 26 32 26 19 22 16 14 12 7 356 352 350 339 324 327 342 350 337 336 321 306 298 293 294 299 296 295 295 293 288 290 291 291 284 280 274 273 278 283 280 265 281
20 14 29 22 16 13 9 9 2 1 352 352 347 338 335 339 343 340 338 326 318 310 300 299 299 295 294 293 294 293 293 292 292 291 279 276 272 273 273 272 266 261 265
23 21 21 21 16 10 12 8 4 359 355 353 353 337 326 345 342 329 327 323 313 304 306 302 302 297 292 293 292 289 288 289 283 288 290 273 272 264 262 256 264 253 253
23 19 15 11 9 11 11 5 1 358 355 351 348 339 335 341 335 328 323 319 314 309 309 308 303 297 295 292 290 287 287 285 285 282 269 278 260 262 254 260 250 251 246
19 15 13 11 6 9 4 6 0 358 353 350 344 340 342 342 335 328 325 324 320 321 320 315 307 300 299 293 288 284 282 278 278 271 272 277 258 252 249 249 248 244 242
13 11 8 6 4 5 360 359 355 353 351 347 342 337 338 341 338 335 332 328 326 325 321 315 307 302 300 294 288 285 277 274 270 265 263 248 247 254 240 237 242 234 239
8 6 5 3 1 358 355 353 351 348 347 343 339 336 336 338 341 338 332 327 324 322 321 318 312 306 301 296 294 279 268 264 265 250 251 256 241 236 233 231 241 229 236
7 1 360 359 357 353 350 347 345 345 341 340 335 334 336 339 338 336 331 326 320 319 323 322 317 312 308 305 304 294 276 262 262 256 250 249 240 226 219 228 223 238 228